Location: Phoenix
(33.4480°N, 112.0730°W)
Time: 22:47:18
(UTC-07:00)

ISS - All Passes

Search period start: 26 June 2016 00:00
Search period end: 06 July 2016 00:00
Orbit: 402 x 403 km, 51.6° (Epoch: 26 June)

Date Brightness Start Highest point End Pass type
(mag) Time Alt. Az. Time Alt. Az. Time Alt. Az.
26 Jun - 08:49:18 10° SW 08:52:32 82° SE 08:55:48 10° NE daylight
26 Jun - 10:28:08 10° NW 10:29:21 12° NNW 10:30:35 10° N daylight
26 Jun - 15:20:59 10° N 15:23:06 16° NNE 15:25:13 10° ENE daylight
26 Jun - 16:56:35 10° WNW 16:59:42 46° SW 17:02:50 10° SSE daylight
27 Jun - 07:56:54 10° SSW 07:59:52 34° SE 08:02:52 10° ENE daylight
27 Jun - 09:33:57 10° W 09:36:23 19° NW 09:38:49 10° NNE daylight
27 Jun - 16:03:45 10° NW 16:07:01 74° NE 16:10:16 10° SE daylight
28 Jun - 07:05:14 10° SSE 07:07:17 16° SE 07:09:20 10° E daylight
28 Jun - 08:40:29 10° WSW 08:43:29 35° NW 08:46:31 10° NNE daylight
28 Jun - 15:11:12 10° NNW 15:14:13 33° NE 15:17:13 10° ESE daylight
28 Jun - 16:48:18 10° W 16:50:27 16° SW 16:52:35 10° S daylight
29 Jun - 07:47:27 10° SW 07:50:42 77° NW 07:53:57 10° NE daylight
29 Jun - 09:27:23 10° NNW 09:27:37 10° NNW 09:27:51 10° NNW daylight
29 Jun - 14:18:56 10° NNW 14:21:20 19° NNE 14:23:43 10° E daylight
29 Jun - 15:54:50 10° WNW 15:57:51 35° SW 16:00:51 10° SSE daylight
30 Jun - 06:54:53 10° SSW 06:58:00 44° SE 07:01:07 10° ENE daylight
30 Jun - 08:32:26 10° WNW 08:34:35 16° NNW 08:36:45 10° N daylight
30 Jun - 13:27:12 10° N 13:28:19 11° NNE 13:29:26 10° NE daylight
30 Jun - 15:01:53 10° NW 15:05:10 86° SW 15:08:25 10° SE daylight
01 Jul - 06:02:56 10° S 06:05:22 20° SE 06:07:49 10° E daylight
01 Jul - 07:38:47 10° W 07:41:40 28° NW 07:44:33 10° NNE daylight
01 Jul - 14:09:15 10° NNW 14:12:23 41° NE 14:15:29 10° ESE daylight
01 Jul - 15:46:55 10° W 15:48:31 13° SW 15:50:07 10° SSW daylight
02 Jul - 06:45:36 10° WSW 06:48:49 60° NW 06:52:03 10° NE daylight
02 Jul - 13:16:52 10° NNW 13:19:29 22° NE 13:22:06 10° E daylight
02 Jul - 14:53:04 10° WNW 14:55:55 28° SW 14:58:45 10° SSE daylight
03 Jul - 05:52:53 10° SSW 05:56:04 57° SE 05:59:16 10° NE daylight
03 Jul - 07:30:55 10° WNW 07:32:46 14° NNW 07:34:36 10° N daylight
03 Jul - 12:24:52 10° N 12:26:30 13° NNE 12:28:07 10° ENE daylight
03 Jul - 14:00:01 10° NW 14:03:14 66° SW 14:06:28 10° SE daylight
04 Jul - 05:00:41 10° S 05:03:24 25° SE 05:06:07 10° ENE daylight
04 Jul - 06:37:04 10° W 06:39:46 24° NW 06:42:30 10° NNE daylight
04 Jul - 13:07:16 10° NW 13:10:29 52° NE 13:13:39 10° ESE daylight
04 Jul - 14:45:59 10° WSW 14:46:31 10° SW 14:47:04 10° SW daylight
05 Jul - 04:09:40 10° SSE 04:10:48 11° SE 04:11:57 10° ESE visible
05 Jul - 05:43:44 10° WSW 05:46:54 47° NW 05:50:03 10° NE daylight
05 Jul - 12:14:47 10° NNW 12:17:36 26° NE 12:20:23 10° E daylight
05 Jul - 13:51:20 10° WNW 13:53:56 22° SW 13:56:32 10° S daylight
